Weather History for Cherokee, IA

Change the Weather History Date:

Tuesday, May 21, 2013

  Actual Average Record
Temperature  
Mean Temperature 56 °F -  
Max Temperature 59 °F 75 °F 91 °F (1975)
Min Temperature 53 °F 48 °F 33 °F (1968)
Degree Days  
Heating Degree Days 9    
Growing Degree Days 6 (Base 50)    
Moisture  
Dew Point 51 °F    
Average Humidity 83    
Maximum Humidity 93    
Minimum Humidity 70    
Precipitation  
Precipitation 0.00 in - - ()
Sea Level Pressure  
Sea Level Pressure 29.60 in    
Wind  
Wind Speed 9 mph (WSW)    
Max Wind Speed 16 mph    
Max Gust Speed 23 mph    
Visibility 10 miles    
Events Rain    
Averages and records for this station are not official NWS values.
T = Trace of Precipitation, MM = Missing Value Source: NWS Daily Summary

Daily Weather History Graph

Daily Weather History Graph

Search for Another Location

Airport:

Trip Planner

Search our weather history database for the weather conditions in past years. The results will help you decide how hot, cold, wet, or windy it might be!

Date:

Astronomy

May. 21, 2013 Rise Set
Actual Time 5:53 AM CDT 8:44 PM CDT
Civil Twilight 5:20 AM CDT 9:17 PM CDT
Nautical Twilight 4:38 AM CDT 9:59 PM CDT
Astronomical Twilight 3:50 AM CDT 10:48 PM CDT
Moon 4:54 PM CDT (5/21) 3:27 AM CDT (5/21)
Length of Visible Light 15h 56m
Length of Day
14h 50m
Waxing Gibbous, 84% of the Moon is Illuminated
May 21
Waxing Gibbous
May 24
Full
May 31
Last Quarter
Jun 8
New
Jun 16
First Quarter

Hourly Weather History & Observations

Time (CDT) Temp. Dew Point Humidity Pressure Visibility Wind Dir Wind Speed Gust Speed Precip Events Conditions
12:35 AM 59.9 °F 54.9 °F 83% 29.55 in 10.0 mi West 9.2 mph 16.1 mph N/A   Overcast
12:55 AM 59.2 °F 55.0 °F 86% 29.55 in 10.0 mi West 10.4 mph - N/A   Overcast
1:15 AM 58.6 °F 54.5 °F 86% 29.55 in 10.0 mi West 8.1 mph - N/A   Overcast
1:35 AM 58.3 °F 54.5 °F 87% 29.55 in 10.0 mi West 6.9 mph - N/A   Overcast
1:55 AM 58.1 °F 54.0 °F 86% 29.55 in 10.0 mi West 6.9 mph - N/A   Overcast
2:15 AM 57.7 °F 54.5 °F 89% 29.54 in 10.0 mi West 9.2 mph - N/A   Overcast
2:35 AM 57.2 °F 53.2 °F 87% 29.55 in 10.0 mi West 10.4 mph - N/A   Overcast
2:55 AM 56.8 °F 52.9 °F 87% 29.55 in 10.0 mi West 8.1 mph - N/A   Overcast
3:15 AM 56.7 °F 52.9 °F 87% 29.55 in 10.0 mi WSW 10.4 mph - N/A   Mostly Cloudy
3:35 AM 56.3 °F 51.8 °F 85% 29.56 in 10.0 mi West 9.2 mph - N/A   Mostly Cloudy
3:55 AM 55.8 °F 51.8 °F 87% 29.55 in 10.0 mi WSW 6.9 mph - N/A   Mostly Cloudy
4:15 AM 55.9 °F 52.2 °F 87% 29.56 in 10.0 mi WSW 6.9 mph - N/A   Overcast
4:35 AM 55.6 °F 51.8 °F 87% 29.56 in 10.0 mi WSW 10.4 mph - N/A   Overcast
4:55 AM 55.4 °F 50.4 °F 83% 29.57 in 10.0 mi WSW 10.4 mph 17.3 mph N/A   Overcast
5:15 AM 55.0 °F 50.0 °F 83% 29.57 in 10.0 mi WSW 8.1 mph - N/A   Overcast
5:35 AM 54.9 °F 50.0 °F 84% 29.57 in 10.0 mi West 11.5 mph 18.4 mph N/A   Overcast
5:55 AM 54.5 °F 50.2 °F 85% 29.58 in 10.0 mi WSW 9.2 mph - N/A   Overcast
6:15 AM 54.1 °F 50.2 °F 86% 29.58 in 10.0 mi WSW 9.2 mph - N/A   Overcast
6:35 AM 54.3 °F 50.0 °F 85% 29.58 in 4.0 mi West 10.4 mph 21.9 mph N/A   Overcast
6:55 AM 53.6 °F 50.9 °F 91% 29.58 in 10.0 mi WSW 5.8 mph - N/A   Overcast
7:15 AM 54.0 °F 50.0 °F 86% 29.59 in 10.0 mi WSW 8.1 mph - N/A   Overcast
7:35 AM 53.4 °F 50.5 °F 90% 29.60 in 7.0 mi West 9.2 mph - N/A   Overcast
7:55 AM 53.1 °F 50.9 °F 92% 29.60 in 5.0 mi West 10.4 mph - N/A   Overcast
8:15 AM 54.1 °F 50.2 °F 86% 29.60 in 10.0 mi WSW 10.4 mph - N/A   Overcast
8:35 AM 55.4 °F 49.1 °F 79% 29.60 in 10.0 mi WSW 16.1 mph 20.7 mph N/A   Mostly Cloudy
8:55 AM 54.7 °F 49.3 °F 82% 29.61 in 10.0 mi WSW 11.5 mph - N/A   Mostly Cloudy
9:15 AM 55.2 °F 49.8 °F 82% 29.61 in 10.0 mi West 13.8 mph 23.0 mph N/A   Overcast
9:35 AM 55.2 °F 50.0 °F 83% 29.61 in 5.0 mi WSW 9.2 mph - N/A   Haze
9:55 AM 55.4 °F 50.2 °F 83% 29.61 in 10.0 mi SW 15.0 mph - N/A   Overcast
10:15 AM 56.1 °F 49.1 °F 77% 29.60 in 10.0 mi SW 11.5 mph 17.3 mph N/A   Overcast
10:35 AM 57.2 °F 49.1 °F 74% 29.60 in 10.0 mi SW 16.1 mph 23.0 mph N/A   Overcast
10:55 AM 57.0 °F 48.4 °F 73% 29.60 in 10.0 mi WSW 15.0 mph 18.4 mph N/A   Overcast
11:15 AM 56.7 °F 48.6 °F 74% 29.60 in 10.0 mi SW 15.0 mph 18.4 mph N/A   Overcast
11:35 AM 56.5 °F 48.2 °F 74% 29.60 in 10.0 mi SW 12.7 mph 19.6 mph N/A   Overcast
11:55 AM 56.7 °F 47.8 °F 72% 29.61 in 10.0 mi SW 8.1 mph - N/A   Overcast
12:15 PM 56.7 °F 47.7 °F 72% 29.61 in 10.0 mi SW 13.8 mph 19.6 mph N/A   Overcast
12:35 PM 57.4 °F 47.8 °F 70% 29.61 in 10.0 mi SW 11.5 mph - N/A   Overcast
12:55 PM 56.8 °F 48.0 °F 72% 29.61 in 10.0 mi SW 10.4 mph - N/A   Overcast
1:15 PM 57.2 °F 47.8 °F 71% 29.62 in 10.0 mi SW 12.7 mph 19.6 mph N/A   Overcast
1:35 PM 56.8 °F 47.8 °F 72% 29.62 in 10.0 mi SW 10.4 mph - N/A   Overcast
1:55 PM 56.5 °F 47.8 °F 73% 29.62 in 10.0 mi SSW 9.2 mph - N/A   Overcast
2:15 PM 57.2 °F 48.2 °F 72% 29.63 in 10.0 mi SSW 11.5 mph 16.1 mph N/A   Overcast
2:35 PM 57.2 °F 48.0 °F 71% 29.63 in 10.0 mi SSW 10.4 mph - N/A   Overcast
2:55 PM 57.6 °F 48.4 °F 71% 29.64 in 10.0 mi SSW 12.7 mph 18.4 mph N/A   Overcast
3:15 PM 57.4 °F 48.0 °F 71% 29.64 in 10.0 mi SW 11.5 mph 17.3 mph N/A   Overcast
3:35 PM 57.2 °F 48.6 °F 73% 29.64 in 10.0 mi SSW 13.8 mph 20.7 mph N/A   Overcast
3:55 PM 57.7 °F 49.8 °F 75% 29.63 in 10.0 mi SSW 16.1 mph 23.0 mph N/A   Overcast
4:15 PM 57.7 °F 50.5 °F 77% 29.62 in 10.0 mi SW 12.7 mph - N/A   Overcast
4:35 PM 58.1 °F 51.1 °F 77% 29.62 in 10.0 mi SW 11.5 mph - N/A   Overcast
4:55 PM 59.0 °F 51.6 °F 76% 29.61 in 10.0 mi SW 15.0 mph 20.7 mph N/A   Overcast
5:15 PM 59.0 °F 51.6 °F 76% 29.61 in 10.0 mi SSW 12.7 mph 19.6 mph N/A   Overcast
5:35 PM 59.2 °F 52.0 °F 77% 29.61 in 10.0 mi SSW 10.4 mph 20.7 mph N/A   Overcast
5:55 PM 58.3 °F 52.3 °F 81% 29.60 in 10.0 mi WSW 10.4 mph - N/A   Overcast
6:15 PM 56.8 °F 54.5 °F 92% 29.61 in 3.0 mi SW 4.6 mph - N/A Rain Light Rain
6:35 PM 56.8 °F 54.3 °F 91% 29.61 in 4.0 mi SSW 3.5 mph - N/A   Drizzle
6:55 PM 57.4 °F 55.2 °F 92% 29.61 in 3.0 mi SW 5.8 mph - N/A   Light Drizzle
7:15 PM 57.6 °F 55.6 °F 93% 29.61 in 10.0 mi WSW 3.5 mph - N/A   Overcast
7:35 PM 58.5 °F 55.8 °F 91% 29.62 in 10.0 mi West 4.6 mph - N/A   Overcast
7:55 PM 58.3 °F 55.4 °F 90% 29.63 in 10.0 mi Calm Calm - N/A   Overcast
8:15 PM 58.1 °F 55.4 °F 91% 29.63 in 10.0 mi WNW 3.5 mph - N/A   Overcast
8:35 PM 58.1 °F 54.9 °F 89% 29.63 in 10.0 mi NW 3.5 mph - N/A   Overcast
8:55 PM 57.9 °F 54.1 °F 87% 29.63 in 10.0 mi NNW 4.6 mph - N/A   Overcast
9:15 PM 57.4 °F 53.2 °F 86% 29.64 in 10.0 mi NNW 4.6 mph - N/A   Overcast
9:35 PM 57.2 °F 52.9 °F 85% 29.64 in 10.0 mi NNW 5.8 mph - N/A   Overcast
9:55 PM 57.0 °F 53.2 °F 87% 29.66 in 10.0 mi North 3.5 mph - N/A   Overcast
10:15 PM 57.0 °F 53.2 °F 87% 29.66 in 10.0 mi Calm Calm - N/A   Overcast
10:35 PM 56.7 °F 53.6 °F 89% 29.67 in 10.0 mi Calm Calm - N/A   Overcast
10:55 PM 56.5 °F 53.6 °F 90% 29.66 in 10.0 mi Calm Calm - N/A   Overcast
11:15 PM 55.9 °F 53.4 °F 91% 29.65 in 10.0 mi NNW 3.5 mph - N/A   Overcast
11:35 PM 55.8 °F 53.2 °F 91% 29.66 in 10.0 mi Calm Calm - N/A   Overcast
11:55 PM 55.8 °F 53.6 °F 92% 29.66 in 10.0 mi Calm Calm - N/A   Overcast